Torna al catalogo

STARLINK-4448

AttivoComunicazioniSSO
NORAD 53504·PAYLOAD·🇺🇸 United States

Lanciato Aug 12, 2022 da Vandenberg Space Force Base

Loading…

Prossimi Passaggi (prossime 24 ore)

TLE

AggiornatoSource: CelesTrak SupGP

Epoca: Sep 15, 2026, 02:17 UTC

1 53504C 22099AR  26258.09562500 -.00018084  00000+0 -50194-3 0  2581
2 53504  97.5149  25.5477 0000794  89.9543  86.7374 15.36967163    15

Traccia STARLINK-4448 in tempo reale con AllMySat

Download on the App Store